Location: Morgan Hill
(37.1310°N, 121.6530°W)
Time: 06:24:05
(UTC-07:00)

ISS - Visible Passes

Search period start: 18 July 2019 00:00
Search period end: 28 July 2019 00:00
Orbit: 409 x 418 km, 51.6° (Epoch: 18 July)

Date Brightness Start Highest point End Pass type
(mag) Time Alt. Az. Time Alt. Az. Time Alt. Az.
18 Jul -1.1 03:27:35 10° NNW 03:30:12 21° NNE 03:32:47 10° E visible
18 Jul -3.5 05:03:51 10° WNW 05:07:01 43° SW 05:10:09 10° SSE visible
18 Jul -2.4 21:44:08 10° WSW 21:47:20 42° NW 21:50:32 10° NE visible
18 Jul -0.1 23:24:05 10° NNW 23:24:43 10° NNW 23:25:21 10° N visible
19 Jul -0.6 02:38:43 10° NNW 02:40:41 15° NNE 02:42:39 10° ENE visible
19 Jul -3.9 04:14:27 10° NW 04:17:46 88° SW 04:21:03 10° SE visible
19 Jul -3.6 20:54:38 10° SW 20:57:59 80° NW 21:01:19 10° NE visible
19 Jul -0.5 22:33:17 10° NW 22:35:07 14° NNW 22:36:57 10° N visible
20 Jul -0.2 01:50:08 10° N 01:51:06 11° NNE 01:51:08 11° NNE visible
20 Jul-0.103:33:21ESE03:33:21ESE03:23:45NWvisible
20 Jul -0.8 21:43:04 10° WNW 21:45:35 19° NNW 21:48:05 10° NNE visible
21 Jul -1.5 20:53:06 10° W 20:56:05 29° NNW 20:59:04 10° NNE visible
22 Jul -0.4 21:42:52 10° NW 21:43:58 11° NNW 21:45:04 10° N visible
23 Jul -0.7 20:52:17 10° WNW 20:54:20 15° NNW 20:56:23 10° NNE visible
26 Jul -0.3 00:06:20 10° NNW 00:06:43 12° NNW 00:06:43 12° NNW visible
26 Jul -0.7 23:17:29 10° N 23:18:50 12° NNE 23:18:50 12° NNE visible
